User: anonymous   Login
Location: Fort Wayne
(41.1310°N, 85.1290°W)
Time: 12:04:31
(UTC-05:00)
Language:

SL-08 RB Rocket - Orbit

View from above orbital plane
View from above orbital plane
View from above satellite
View from above satellite

Ground track
Ground track

The orbit data is extracted from the following two-line orbital elements,

1 26387U 00033D   17344.80090837 +.00000109 +00000-0 +27013-4 0  9993
2 26387 097.9494 044.3596 0027525 133.6350 341.5381 14.68340791191484
Epoch (UTC): 10 December 2017 19:13:18
Eccentricity: 0.0027525
inclination: 97.9494°
perigee height: 647 km
apogee height: 686 km
right ascension of ascending node: 44.3596°
argument of perigee: 133.6350°
revolutions per day: 14.68340791
mean anomaly at epoch: 341.5381°
orbit number at epoch: 19148

The dashed part of the orbit path shows where the satellite is in the earth's shadow,  

DLR